Location: Caltech
(34.1382°N, 118.1253°W)
Time: 06:48:15
(UTC-07:00)

PANSAT - Visible Passes

Search period start: 27 June 2017 00:00
Search period end: 07 July 2017 00:00
Orbit: 477 x 484 km, 28.5° (Epoch: 26 June)

Date Brightness Start Highest point End Pass type
(mag) Time Alt. Az. Time Alt. Az. Time Alt. Az.
27 Jun 9.1 04:45:16 14° SSW 04:47:25 22° SSE 04:50:21 10° ESE visible
28 Jun 9.0 04:17:13 21° S 04:17:53 22° SSE 04:20:50 10° ESE visible
29 Jun 9.3 03:49:11 20° SE 03:49:11 20° SE 03:51:19 10° ESE visible
30 Jun 10.0 03:21:11 13° ESE 03:21:11 13° ESE 03:21:48 10° ESE visible
30 Jun 8.4 04:55:19 13° WSW 04:58:16 34° S 05:01:44 10° ESE visible
01 Jul 8.3 04:27:22 25° SW 04:28:45 34° S 04:32:11 10° ESE visible
02 Jul 8.4 03:59:29 33° SSE 03:59:29 33° SSE 04:02:39 10° ESE visible
03 Jul 9.5 03:31:43 20° SE 03:31:43 20° SE 03:33:07 10° ESE visible
03 Jul 8.7 05:05:59 10° WSW 05:09:10 26° SSW 05:12:21 10° SE visible
04 Jul 8.7 04:38:15 21° SW 04:39:38 26° SSW 04:42:49 10° SE visible
05 Jul 8.8 04:10:47 24° S 04:10:47 24° S 04:13:16 10° SE visible
06 Jul 10.1 03:43:33 11° SE 03:43:33 11° SE 03:43:43 10° SE visible
